Dewpoint
56 56 56 56 56 57 57 57 58 58 58 59 59 60 61 61 60 52 38 54 68 78 77 68 65 55 55 53 48 47 47 46 41 43 44 46 44 46 48 46 49 50 53 54 54
55 55 55 56 56 56 56 57 57 57 58 59 59 60 60 61 48 32 65 77 76 78 68 57 54 54 53 49 45 45 47 44 41 44 44 46 46 45 46 47 50 53 54 55 53
55 55 55 55 55 56 56 57 57 57 57 58 59 60 60 59 43 35 75 78 77 77 62 54 57 59 51 43 41 42 38 43 42 43 45 45 46 49 47 46 49 51 52 53 53
55 55 55 55 55 56 56 56 57 56 57 57 58 60 60 51 33 47 73 78 78 66 61 58 55 55 55 45 39 37 40 42 43 44 44 45 50 49 50 49 50 51 52 51 49
55 55 56 56 55 56 56 57 56 56 57 57 59 59 50 36 27 60 74 75 68 64 58 55 54 57 53 44 44 38 41 43 43 41 44 45 48 49 49 50 51 51 51 51 52
55 56 56 56 56 56 56 56 56 56 56 58 59 60 48 28 51 53 46 58 57 58 56 49 53 54 50 47 46 40 42 42 44 41 42 43 45 48 51 51 50 50 53 52 53
56 56 56 56 55 56 56 56 55 55 57 59 61 55 35 25 35 53 51 53 54 53 49 46 45 53 54 47 45 42 42 43 43 44 41 43 45 44 50 50 53 53 57 55 55
56 56 56 56 56 56 55 55 55 56 58 61 62 49 31 15 28 44 49 49 51 50 48 42 44 51 58 55 46 51 52 45 44 44 43 43 45 45 47 50 53 54 56 57 58
55 55 56 56 55 55 54 54 55 57 60 61 51 45 21 33 19 44 45 47 48 48 47 45 44 44 56 48 53 55 52 49 43 44 46 47 43 44 46 47 51 53 55 57 60
55 55 55 55 55 54 53 54 56 56 57 51 46 36 21 12 6 17 45 45 45 45 44 43 41 41 53 54 51 52 50 50 42 43 44 42 42 43 46 46 50 49 53 55 55
55 55 54 54 54 53 49 44 44 44 42 23 21 19 4 11 6 17 43 43 43 44 40 40 37 43 52 56 52 51 51 51 41 42 42 42 42 43 44 44 48 50 49 53 56
54 54 54 54 53 52 49 42 35 34 33 34 29 17 7 12 9 18 34 34 40 40 39 37 35 41 49 52 49 48 52 50 41 41 39 41 41 42 45 46 45 49 50 53 53
54 54 53 53 52 47 37 37 36 35 30 24 23 21 9 16 17 16 24 28 38 35 36 34 39 40 42 49 47 46 48 41 43 41 43 39 41 42 43 46 47 48 49 52 56
53 53 53 52 45 32 32 37 34 37 28 22 20 17 17 14 14 16 21 27 29 28 34 33 39 38 36 34 34 46 48 42 42 45 41 37 34 42 41 42 43 44 45 50 52
53 53 52 51 43 30 31 31 34 36 24 20 19 14 13 11 6 10 17 25 26 27 30 33 37 36 33 33 38 48 46 44 46 42 45 42 49 39 42 40 41 43 47 48 51
53 52 51 46 46 34 27 30 34 29 20 15 17 13 11 7 8 4 15 22 27 27 28 32 36 35 31 34 42 42 39 41 44 48 47 50 46 40 39 41 40 44 47 46 51
51 50 49 43 33 31 28 33 29 24 17 14 16 17 12 12 7 4 13 17 22 25 26 28 32 32 36 36 41 39 39 39 39 48 46 51 45 43 38 41 40 44 44 48 48
49 49 48 41 36 32 30 30 29 20 17 15 14 13 13 8 4 3 9 16 20 24 24 26 28 33 34 35 35 47 50 49 44 44 40 47 42 38 41 40 40 40 41 46 46
48 42 40 43 39 36 31 26 22 23 18 13 15 14 12 9 4 3 7 13 16 22 24 25 29 31 33 35 40 48 46 53 50 48 42 47 44 36 38 39 41 39 42 42 43
43 39 36 35 37 28 25 28 24 24 20 18 18 15 14 12 6 2 5 8 11 19 23 26 27 28 31 34 34 42 48 42 43 40 43 38 35 34 40 39 39 40 39 40 42
42 32 37 34 28 25 19 19 19 20 23 20 17 17 17 12 9 3 4 4 9 12 19 24 27 34 34 32 31 42 42 41 53 42 46 38 32 40 42 39 41 37 39 41 42
37 26 36 32 27 22 19 17 26 16 21 24 21 19 21 20 16 9 4 5 2 8 15 22 25 32 35 33 32 31 30 32 34 43 43 48 36 32 36 35 38 34 40 42 45
36 27 28 28 22 23 22 16 13 13 16 21 21 18 18 18 22 20 8 4 4 5 12 17 24 28 35 37 31 31 33 32 36 43 38 45 34 32 36 38 40 37 44 48 47
38 23 27 34 30 25 22 21 23 20 14 15 19 21 19 17 20 22 19 7 6 11 51 30 16 22 31 38 33 32 31 34 48 50 40 47 34 34 37 38 39 42 44 46 49
39 28 33 29 24 24 27 31 28 23 25 22 19 18 20 19 19 20 19 18 13 38 23 12 15 21 26 32 37 36 33 30 43 46 47 40 30 34 40 39 41 42 45 47 50
33 31 32 29 24 20 23 22 21 21 27 25 24 17 19 20 21 21 19 21 19 19 16 12 18 21 22 24 41 41 40 36 34 41 49 48 39 33 37 43 43 43 46 48 50
37 36 32 32 23 19 18 19 19 22 22 24 26 27 23 20 20 17 18 19 17 19 19 14 15 21 23 24 42 42 38 37 32 36 36 39 43 39 38 42 41 41 45 49 51
Lifted_Index
16 16 16 16 16 16 16 16 16 16 15 15 15 14 14 13 10 7 4 1 -2 -4 -4 -4 -3 -2 -2 -2 -2 -1 -1 -1 -1 -0 0 0 0 1 1 1 0 0 0 0 1
16 16 16 16 16 16 16 16 16 16 16 15 15 14 14 12 10 7 3 -1 -3 -4 -4 -3 -2 -2 -2 -2 -2 -1 -1 -1 -0 0 0 0 0 0 1 1 0 0 0 0 1
17 17 17 17 16 16 16 16 16 16 16 15 15 14 13 12 9 6 2 -2 -3 -3 -3 -2 -1 -1 -1 -1 -2 -1 -1 0 0 1 1 1 0 0 0 0 0 0 0 1 1
17 17 17 17 17 16 16 16 16 16 16 15 15 14 13 10 7 5 2 -2 -3 -3 -2 -2 -1 -1 -1 -1 -1 -1 -0 0 1 1 1 0 0 0 0 0 0 0 0 1 1
17 17 17 17 16 16 16 16 16 16 16 15 14 13 12 9 6 4 3 -0 -2 -2 -2 -2 -1 -1 -1 -2 -1 -1 0 0 1 1 1 0 0 0 0 0 0 0 0 0 0
16 16 16 16 16 16 16 16 16 15 15 14 13 12 10 8 6 4 4 2 -0 -1 -1 -1 -1 -1 -1 -2 -2 -1 -0 -0 0 1 1 1 0 0 0 0 0 -0 -0 -0 -1
16 16 16 16 16 16 16 16 15 14 13 13 12 11 10 8 6 5 3 2 1 -0 -0 -0 -1 -1 -2 -2 -2 -1 -1 -1 -1 -0 0 1 1 0 0 -0 -0 -1 -1 -1 -1
16 16 16 16 16 16 16 16 14 13 12 11 10 9 9 9 7 5 3 2 1 1 0 0 -0 -1 -2 -2 -2 -1 -1 -1 -1 -1 -0 0 0 0 0 -0 -1 -1 -2 -2 -2
16 15 15 15 16 16 15 15 13 12 11 10 9 9 8 9 8 6 4 2 1 1 1 1 -0 -1 -1 -2 -2 -1 -1 -1 -1 -1 -0 -0 0 1 1 0 -1 -2 -2 -2 -3
15 15 15 15 15 15 14 13 11 10 9 8 8 8 8 8 8 7 4 2 2 1 1 0 0 -1 -1 -1 -1 -1 -1 -1 -1 -1 -1 -0 0 1 1 -0 -1 -2 -2 -2 -2
15 15 14 15 15 14 12 10 8 8 8 8 8 7 7 7 7 7 5 3 2 1 1 0 -0 -1 -1 -1 -1 -1 -1 -1 -1 -1 -1 -0 0 1 0 -0 -1 -2 -2 -2 -2
14 14 14 14 15 13 10 8 8 7 7 7 8 7 7 7 7 6 6 4 3 1 1 0 -0 -1 -1 -1 -1 -1 -1 -1 -1 -1 -1 -1 -0 0 0 -0 -1 -1 -2 -2 -1
14 14 14 14 14 12 9 8 8 8 7 7 7 7 7 7 7 6 6 5 3 2 1 -0 -1 -1 -1 -1 -1 -1 -1 -2 -2 -2 -2 -1 -1 -0 0 -0 -1 -1 -1 -1 -1
14 13 14 14 13 11 9 9 8 7 5 5 6 7 7 7 6 6 6 5 4 3 1 -0 -1 -1 -1 -1 -1 -1 -1 -1 -2 -2 -2 -1 -1 -0 -0 -0 -1 -1 -1 -1 -1
14 13 13 13 12 11 10 9 8 6 3 4 5 6 6 6 5 5 5 5 4 2 1 -0 -1 -1 -1 -1 -1 -0 -0 -1 -1 -2 -1 -1 -1 0 0 0 -0 -1 -1 -1 -1
14 13 13 13 12 12 11 10 7 4 2 3 5 5 5 5 5 4 4 4 4 2 0 -0 -0 -1 -1 -1 -0 0 -0 -1 -2 -2 -1 -0 -0 0 1 1 0 -1 -1 -1 -2
14 13 13 12 12 12 11 9 5 3 1 2 3 4 5 4 4 4 4 4 3 2 0 -0 -1 -1 -1 -1 -0 -0 -0 -1 -1 -1 -0 0 0 0 1 0 -0 -1 -2 -1 -1
13 12 12 11 11 11 10 7 4 1 1 1 2 3 4 4 3 3 3 3 3 2 0 -1 -1 -1 -1 -1 -1 -1 -0 -0 -0 -0 0 0 0 1 1 0 0 -0 -1 -2 -1
13 11 10 10 10 10 9 6 3 2 2 2 2 2 2 3 3 2 2 3 3 2 0 -0 -1 -1 -0 -0 -1 -1 -0 0 0 -0 -0 -0 0 1 1 1 1 0 -0 -1 -1
12 10 9 9 10 10 7 5 4 4 4 4 3 2 1 1 1 2 2 1 2 2 1 -0 -1 -1 -0 -0 -0 -1 -0 0 -0 -0 -0 -1 0 1 1 1 1 1 0 0 -0
10 9 8 9 10 9 7 6 5 5 5 5 4 3 1 0 0 0 0 0 0 1 1 0 -0 -0 -0 -0 -0 -1 -1 -1 -0 -0 -0 -0 0 1 2 2 2 1 1 1 1
10 9 9 9 9 8 7 6 6 6 6 6 5 4 3 2 0 -0 -0 -1 -1 -0 1 0 -0 -0 0 -0 -0 -0 -1 -1 -0 -0 -0 -0 0 2 2 2 2 2 2 1 1
10 9 9 8 8 7 7 7 6 6 6 6 6 5 5 3 2 1 -0 -1 -1 -0 0 -0 -0 -0 0 0 -0 -0 -0 -0 -0 -0 -0 -0 1 2 2 2 2 2 2 1 1
9 9 9 8 7 7 7 6 6 6 7 7 7 6 5 5 4 3 1 0 -0 -0 -0 -0 -0 -0 0 0 -0 -1 -1 -1 -0 -0 -0 -0 1 2 2 3 3 2 2 1 1
9 9 8 8 8 8 7 6 6 6 6 6 7 6 6 5 4 3 2 1 0 0 0 0 0 -0 -0 -0 -0 -0 -1 -1 -0 -0 -0 0 1 1 2 2 2 2 2 1 1
9 9 9 8 8 8 8 7 7 7 6 6 6 6 6 6 5 4 3 2 1 1 1 1 1 0 -0 -1 -0 0 0 -0 -1 -0 -0 0 0 1 1 2 2 2 2 1 1
10 10 9 9 9 8 8 8 7 7 6 6 6 6 6 6 5 4 3 2 1 1 1 1 1 1 -0 -1 -0 0 1 0 -0 -0 -0 -0 -0 0 1 2 2 2 2 1 1